格洛纳斯-781 COSMOS 2317 [GLONASS]

导读 | 豆包AI

COSMOS 2317(又名GLONASS)是独联体CIS于1995年7月24日发射的格洛纳斯全球导航卫星系统组网卫星。该卫星属于第一代GLONASS导航卫星,采用三轴稳定体制,搭载精密铯原子钟作为频率基准,运行于高度约19100千米、倾角64.8°的中地球轨道,设计寿命5年,为全球用户提供全天候定位、测速与授时服务,助力格洛纳斯系统完成早期星座组网。

基本信息
目录编号:
23621
目录名称:
COSMOS 2317 (GLONASS)
国际标识:
1995-037B
轨道中心:
EARTH
卫星名称:
格洛纳斯-781
卫星全名:
格洛纳斯-781 COSMOS 2317 [GLONASS]
卫星状态:
在轨 (已飞行11191 天)
发射日期:
1995-07-24 UTC
国别 :
俄罗斯(独联体) (CIS)
星等 :
--
轨道信息
数据来源 国际轨道数据 AOE轨道数据
星历时间 2026-03-11T05:03:31+0800
3天前
查看轨道信息
2026-03-10T18:00:00+0800
3天前
查看轨道信息
半长轴 25508.049km 25508.049km
偏心率 0.0009382 0.000935
轨道倾角 65.480° 65.480°
近地点辐角 163.848° 167.524°
升交点赤经 206.131° 206.146°
平近点角 194.456° 197.284°
近地点 19105.98km 19106.061km
远地点 19153.844km 19153.763km
周期 675.734分钟 675.734分钟
每日圈数 2.131017 2.131017
详细信息
平衡模式:
三轴稳定
覆盖范围:
全球
运营商:
列舍特涅夫卫星信息系统
运营商所在国:
俄罗斯
制造商(研发单位):
列舍特涅夫卫星信息系统
制造商所在国:
俄罗斯
使用方式:
暂无
卫星简介
格洛纳斯(GLONASS )是苏联/俄罗斯研制卫星导航系统。标准配置为24颗卫星,其中18颗卫星就能保证该系统为俄罗斯境内用户提供全部服务。该卫星已退役。
2D轨道图
3D轨道图
轨道高度分析图
轨道倾角分析图
轨道综合分析图
查看轨道综合分析图